Probability
0 0 0 0 0 0 0 0 0 0 0 0 0 0 0 0 0 0 0 0 0 0 0 0 0 0 0 0 0 0 0 0 0 0 0 0 0 0 0 0 0 0 0
0 0 0 0 0 0 0 0 0 0 0 0 0 0 0 0 0 0 0 0 0 0 0 0 0 0 0 0 0 0 0 0 0 0 0 0 0 0 0 0 0 0 0
0 0 0 0 0 0 0 0 0 0 0 0 0 0 0 0 0 0 0 0 0 0 0 0 0 0 0 0 0 0 0 0 0 0 0 0 0 0 0 0 0 0 0
0 0 0 0 0 0 0 0 0 0 0 0 0 0 0 0 0 0 0 0 0 0 0 0 0 0 0 0 0 0 0 0 0 0 0 0 0 0 0 0 0 0 0
0 0 0 0 0 0 0 0 0 0 0 0 0 0 0 0 0 0 0 0 0 0 0 0 0 0 0 0 0 0 0 0 0 0 0 0 0 0 0 0 0 0 0
0 0 0 0 0 0 0 0 0 0 0 0 0 0 0 0 0 0 0 0 0 0 0 0 0 0 0 0 0 0 0 0 0 0 0 0 0 0 0 0 0 0 0
0 0 0 0 0 0 0 0 0 0 0 0 0 0 0 0 0 0 0 0 0 0 0 0 0 0 0 0 0 0 0 0 0 0 0 0 0 0 0 0 0 0 0
0 0 0 0 0 0 0 0 0 0 0 0 0 0 0 0 0 0 0 0 0 0 0 0 0 0 0 0 0 0 0 0 0 0 0 0 0 0 0 0 0 0 0
0 0 0 0 0 0 0 0 0 0 0 0 0 0 0 0 0 0 0 0 0 0 0 0 0 0 0 0 0 0 0 0 0 0 0 0 0 0 0 0 0 0 0
0 0 0 0 0 0 0 0 0 0 0 0 0 0 0 0 0 0 0 0 0 0 0 0 0 0 0 0 0 0 0 0 0 0 0 0 0 0 0 0 0 0 0
0 0 0 0 0 0 0 0 0 0 0 0 0 0 0 0 0 0 0 0 0 0 0 0 0 0 0 0 0 0 0 0 0 0 0 0 0 0 0 0 0 0 0
0 0 0 0 0 0 0 0 0 0 0 0 0 0 0 0 0 0 0 0 0 0 0 0 0 0 0 0 0 0 0 0 0 0 0 0 0 0 0 0 0 0 0
0 0 0 0 0 0 0 0 0 0 0 0 0 0 0 0 0 0 0 0 0 0 0 0 0 0 0 0 0 0 0 0 0 0 0 0 0 0 0 0 0 0 0
0 0 0 0 0 0 0 0 0 0 0 0 0 0 0 0 0 0 0 0 0 0 0 0 0 0 0 0 0 0 0 0 0 0 0 0 0 0 0 0 0 0 0
0 0 0 0 0 0 0 0 0 0 0 0 0 0 0 0 0 0 0 0 0 0 0 0 0 0 0 0 0 0 0 0 0 0 0 0 0 0 0 0 0 0 0
0 0 0 0 0 0 0 0 0 0 0 0 0 0 0 0 0 0 0 0 0 0 0 0 0 0 0 0 0 0 0 0 0 0 0 0 0 0 0 0 0 0 0
0 0 0 0 0 0 0 0 0 0 0 0 0 0 0 0 0 0 0 0 0 0 0 0 0 0 0 0 0 0 0 0 0 0 0 0 0 0 0 0 0 0 0
0 0 0 0 0 0 0 0 0 0 0 0 0 0 0 0 0 0 0 0 0 0 0 0 0 0 0 0 0 0 0 0 0 0 0 0 0 0 0 0 0 0 0
0 0 0 0 0 0 0 0 0 0 0 0 0 0 0 0 0 0 0 0 0 0 0 0 0 0 0 0 0 0 0 0 0 0 0 0 0 0 0 0 0 0 0
0 0 0 0 0 0 0 0 0 0 0 0 0 0 0 0 0 0 0 0 0 0 0 0 0 0 0 0 0 0 0 0 0 0 0 0 0 0 0 0 0 0 0
0 0 0 0 0 0 0 0 0 0 0 0 0 0 0 0 0 0 0 0 0 0 0 0 0 0 0 0 0 0 0 0 0 0 0 0 0 0 0 0 0 0 0
0 0 0 0 0 0 0 0 0 0 0 0 0 0 0 0 0 0 0 0 0 0 0 0 0 0 0 0 0 0 0 0 0 0 0 0 0 0 0 0 0 0 0
0 0 0 0 0 0 0 0 0 0 0 0 0 0 0 0 0 0 0 0 0 0 0 0 0 0 0 0 0 0 0 0 0 0 0 0 0 0 0 0 0 0 0
0 0 0 0 0 0 0 0 0 0 0 0 0 0 0 0 0 0 0 0 0 0 0 0 0 0 0 0 0 0 0 0 0 0 0 0 0 0 0 0 0 0 0
0 0 0 0 0 0 0 0 0 0 0 0 0 0 0 0 0 0 0 0 0 0 0 0 0 0 0 0 0 0 0 0 0 0 0 0 0 0 0 0 0 0 0
0 0 0 0 0 0 0 0 0 0 0 0 0 0 0 0 0 0 0 0 0 0 0 0 0 0 0 0 0 0 0 0 0 0 0 0 0 0 0 0 0 0 0
Height
5619 5622 5628 5634 5641 5649 5657 5666 5674 5682 5690 5699 5707 5714 5721 5728 5734 5740 5746 5752 5758 5763 5768 5774 5778 5782 5786 5790 5793 5796 5798 5800 5802 5804 5806 5807 5808 5809 5810 5810 5811 5810 5810
5609 5612 5617 5623 5630 5637 5645 5653 5662 5670 5679 5689 5697 5704 5711 5718 5725 5731 5738 5743 5749 5754 5759 5764 5769 5773 5777 5781 5784 5787 5789 5791 5794 5796 5797 5799 5801 5801 5802 5802 5802 5802 5802
5602 5605 5609 5615 5620 5627 5634 5642 5651 5660 5669 5678 5686 5694 5702 5709 5716 5722 5728 5735 5740 5746 5750 5755 5760 5764 5768 5771 5775 5777 5780 5783 5785 5787 5788 5790 5791 5792 5793 5793 5793 5793 5793
5597 5600 5603 5608 5613 5619 5625 5633 5642 5650 5659 5668 5677 5685 5693 5701 5709 5715 5721 5726 5732 5738 5743 5747 5750 5754 5758 5761 5765 5767 5770 5773 5775 5777 5779 5781 5782 5783 5784 5785 5784 5784 5784
5595 5597 5601 5605 5609 5613 5620 5627 5635 5644 5652 5660 5669 5677 5685 5694 5701 5707 5713 5718 5724 5730 5734 5738 5742 5745 5749 5752 5755 5758 5760 5763 5766 5768 5770 5771 5772 5773 5774 5775 5776 5776 5775
5596 5597 5600 5603 5607 5611 5617 5623 5631 5638 5646 5654 5661 5670 5678 5686 5693 5699 5705 5711 5717 5721 5726 5730 5734 5737 5740 5743 5746 5749 5752 5754 5757 5759 5760 5762 5763 5764 5764 5765 5766 5766 5766
5598 5599 5601 5603 5607 5611 5616 5622 5629 5636 5642 5649 5656 5664 5672 5679 5686 5693 5699 5704 5710 5714 5719 5722 5725 5728 5732 5734 5737 5740 5743 5745 5747 5749 5750 5752 5753 5754 5754 5755 5756 5756 5756
5601 5602 5603 5605 5608 5613 5618 5623 5628 5634 5639 5645 5652 5659 5667 5674 5680 5687 5693 5698 5703 5707 5711 5715 5718 5721 5723 5726 5728 5731 5733 5735 5737 5738 5740 5741 5742 5743 5744 5745 5745 5745 5746
5605 5606 5607 5609 5612 5615 5619 5624 5629 5634 5638 5644 5650 5656 5663 5669 5675 5681 5687 5691 5696 5700 5703 5706 5709 5712 5715 5717 5720 5722 5723 5725 5727 5728 5730 5731 5732 5733 5733 5734 5734 5734 5734
5609 5610 5612 5614 5616 5618 5622 5626 5630 5634 5638 5643 5648 5653 5660 5665 5671 5676 5681 5686 5690 5693 5696 5698 5701 5704 5706 5709 5710 5712 5713 5715 5716 5717 5719 5720 5721 5721 5721 5722 5722 5722 5722
5614 5615 5616 5618 5620 5622 5625 5628 5631 5634 5638 5643 5647 5652 5657 5662 5667 5672 5676 5680 5683 5686 5688 5691 5693 5695 5697 5699 5700 5702 5703 5704 5705 5706 5708 5709 5709 5709 5710 5710 5710 5710 5709
5619 5619 5621 5622 5624 5626 5628 5630 5633 5636 5639 5643 5646 5650 5655 5659 5663 5667 5670 5673 5676 5679 5681 5683 5685 5687 5688 5689 5690 5691 5692 5693 5694 5695 5696 5697 5697 5697 5697 5697 5697 5696 5696
5623 5623 5625 5626 5627 5628 5630 5632 5634 5637 5640 5643 5646 5649 5652 5655 5659 5662 5664 5667 5670 5672 5673 5675 5677 5678 5679 5680 5680 5681 5681 5682 5682 5683 5683 5684 5683 5683 5684 5683 5683 5683 5683
5626 5627 5628 5629 5630 5631 5632 5634 5635 5637 5639 5642 5644 5647 5650 5652 5655 5657 5659 5661 5663 5664 5665 5666 5667 5667 5668 5668 5668 5668 5668 5668 5668 5669 5669 5669 5669 5669 5669 5669 5669 5668 5669
5628 5629 5630 5630 5631 5632 5633 5634 5636 5638 5639 5641 5643 5645 5647 5648 5650 5652 5653 5654 5655 5656 5656 5656 5656 5656 5656 5656 5655 5655 5654 5654 5654 5654 5654 5654 5654 5654 5653 5654 5654 5654 5654
5630 5631 5631 5632 5632 5633 5634 5635 5636 5637 5638 5639 5641 5642 5643 5644 5644 5645 5646 5647 5647 5646 5646 5645 5645 5644 5643 5642 5641 5640 5640 5639 5639 5639 5639 5638 5638 5638 5638 5638 5638 5638 5639
5632 5632 5632 5632 5633 5633 5634 5634 5635 5635 5636 5636 5637 5638 5638 5638 5638 5638 5638 5637 5636 5635 5634 5633 5632 5630 5628 5627 5625 5624 5623 5623 5622 5621 5621 5620 5620 5620 5620 5620 5621 5622 5623
5632 5632 5632 5632 5632 5632 5632 5632 5632 5632 5632 5632 5631 5631 5631 5630 5630 5629 5628 5626 5625 5623 5621 5619 5617 5615 5613 5610 5608 5607 5606 5605 5604 5603 5602 5602 5602 5601 5602 5602 5603 5604 5606
5633 5633 5632 5631 5631 5630 5629 5628 5628 5627 5626 5625 5624 5623 5622 5621 5619 5618 5616 5614 5611 5609 5606 5604 5601 5598 5595 5592 5590 5588 5586 5586 5585 5584 5583 5583 5583 5583 5583 5584 5585 5587 5589
5631 5631 5630 5629 5627 5626 5625 5623 5622 5620 5619 5617 5615 5614 5611 5609 5607 5604 5601 5598 5595 5592 5589 5585 5582 5579 5576 5572 5570 5567 5566 5565 5564 5563 5562 5562 5562 5563 5563 5564 5566 5569 5571
5629 5628 5626 5625 5623 5621 5619 5617 5614 5612 5610 5607 5605 5602 5599 5596 5592 5589 5585 5582 5578 5575 5570 5566 5562 5558 5554 5551 5548 5545 5543 5543 5542 5542 5542 5541 5541 5542 5543 5545 5548 5550 5552
5625 5624 5622 5620 5618 5615 5613 5610 5607 5604 5600 5596 5593 5589 5585 5580 5576 5571 5567 5562 5557 5553 5548 5543 5539 5535 5531 5528 5525 5522 5520 5519 5518 5519 5519 5520 5520 5521 5523 5526 5529 5532 5534
5621 5619 5617 5614 5611 5608 5605 5602 5598 5594 5590 5585 5580 5575 5569 5564 5558 5552 5547 5541 5535 5529 5524 5520 5516 5512 5508 5504 5501 5499 5497 5495 5495 5496 5497 5498 5499 5500 5503 5506 5509 5513 5517
5617 5614 5611 5608 5604 5600 5597 5593 5588 5584 5579 5573 5567 5560 5554 5547 5540 5532 5525 5518 5512 5506 5501 5496 5492 5488 5484 5480 5477 5474 5473 5472 5471 5472 5474 5476 5478 5480 5483 5487 5490 5494 5500
5611 5608 5604 5600 5596 5592 5587 5582 5577 5571 5565 5559 5552 5545 5537 5529 5521 5512 5504 5496 5489 5483 5478 5473 5468 5464 5461 5457 5453 5451 5450 5449 5449 5450 5452 5454 5458 5461 5464 5468 5473 5477 5482
5605 5601 5597 5592 5588 5582 5577 5571 5565 5558 5551 5544 5536 5527 5518 5509 5501 5493 5485 5476 5469 5462 5456 5450 5445 5441 5438 5435 5432 5430 5429 5428 5428 5428 5431 5435 5438 5442 5446 5451 5456 5461 5467
Wind_Speed
40 46 50 53 55 57 58 59 58 57 58 57 54 53 52 52 53 55 55 56 55 55 54 53 53 51 49 48 46 45 44 43 42 41 40 39 38 37 36 36 36 36 35
34 38 42 45 50 54 55 57 58 58 57 56 54 54 52 53 51 52 52 53 54 55 53 53 53 52 51 50 50 48 47 46 44 43 42 41 39 38 38 38 37 38 37
24 30 35 39 42 47 50 53 55 57 57 57 53 53 52 52 51 51 50 50 50 52 52 52 53 54 54 52 51 51 49 48 46 44 43 42 41 41 41 39 39 38 38
16 21 25 28 33 39 43 46 50 52 54 54 53 53 52 51 49 48 48 50 49 49 50 50 52 53 54 54 52 52 50 49 47 45 44 43 42 41 40 39 38 38 38
11 15 20 20 25 31 36 38 42 46 48 49 50 51 51 50 48 47 48 49 49 50 52 50 50 50 51 51 51 50 49 49 48 47 45 44 43 43 42 40 40 39 39
7 11 14 15 18 23 28 33 38 39 42 42 45 49 49 49 49 47 46 48 48 48 51 52 50 49 49 49 49 48 47 48 47 46 46 45 44 44 43 41 41 41 40
10 11 12 13 15 18 22 25 30 33 36 37 40 44 46 44 45 45 43 43 45 45 47 49 49 49 50 49 49 47 47 47 46 46 46 46 45 43 41 41 41 42 42
13 11 12 13 16 18 19 19 22 26 29 32 36 40 41 40 40 41 41 41 42 44 44 47 47 46 45 46 46 47 47 48 48 47 47 46 45 44 43 42 43 43 44
15 15 15 15 15 15 15 16 19 20 23 27 31 33 35 36 35 37 38 38 39 42 43 44 42 42 42 42 44 45 45 46 45 46 46 45 45 46 46 46 46 46 46
16 16 15 14 13 13 12 12 14 15 18 21 24 27 30 33 34 33 33 36 36 37 39 42 42 42 42 42 43 44 45 46 46 47 47 48 48 47 48 48 48 49 49
18 18 16 15 13 13 13 12 12 13 15 16 19 23 25 27 29 30 31 32 32 33 34 36 38 40 41 44 45 46 46 47 48 48 48 48 48 48 49 50 50 51 51
16 17 16 15 13 12 12 12 12 12 13 14 15 19 22 23 24 26 28 29 31 32 34 35 37 39 41 43 44 46 47 47 47 48 48 48 49 50 51 52 51 50 50
15 14 13 12 12 11 11 11 11 10 11 12 14 15 17 20 22 23 25 28 29 31 33 35 37 39 40 41 43 45 47 48 50 51 51 52 53 53 53 53 51 51 50
12 12 11 10 10 9 8 8 9 9 9 9 10 11 13 15 18 19 21 24 28 30 33 36 38 40 42 43 45 47 48 49 50 52 53 52 52 52 53 53 52 52 52
9 9 8 8 8 7 6 5 5 6 6 6 7 8 10 13 15 17 20 23 26 29 32 35 37 39 41 44 45 47 47 48 49 50 51 52 53 53 53 54 54 54 54
7 7 7 6 6 6 4 3 1 3 4 6 7 9 11 13 16 19 21 23 26 29 32 35 38 40 42 44 46 48 49 50 51 52 54 54 55 56 56 57 57 57 56
6 6 5 4 3 2 1 1 2 4 5 7 10 12 15 17 20 23 25 27 30 32 35 38 41 44 45 47 48 50 52 53 54 54 55 55 57 58 58 59 60 59 59
4 3 3 3 3 4 5 6 8 10 12 14 16 18 21 24 26 29 31 33 35 37 39 42 45 47 49 51 51 52 54 54 55 56 57 57 58 60 60 61 61 60 60
2 3 4 6 7 9 11 12 14 16 18 20 22 25 27 30 32 35 37 40 42 44 46 48 50 52 54 56 56 57 57 58 58 59 59 60 60 61 62 62 62 62 61
4 6 8 10 12 13 16 18 19 21 23 25 27 30 32 35 38 41 43 46 49 51 53 54 55 57 58 58 59 60 61 60 60 60 60 61 62 63 63 63 62 62 61
8 10 12 14 16 18 20 22 24 26 28 30 32 35 38 41 43 46 49 52 54 57 59 60 60 60 61 61 62 62 63 62 62 61 61 61 62 63 63 62 61 61 60
12 14 16 17 19 21 23 25 27 30 32 35 37 40 43 46 49 52 55 57 60 62 63 64 64 64 64 64 64 64 63 63 63 61 61 60 61 62 62 62 61 60 59
14 16 18 21 23 25 27 29 31 33 36 39 42 45 48 51 54 57 60 62 64 65 65 66 66 65 65 65 65 64 62 62 62 61 60 60 60 60 60 61 61 60 58
17 20 22 24 26 29 31 33 36 38 41 44 46 49 52 55 58 61 63 65 66 66 66 66 66 65 64 63 63 62 61 61 61 60 60 59 59 58 58 59 59 59 58
22 24 26 29 31 33 36 38 41 44 46 49 52 54 57 59 61 63 64 64 64 65 65 64 64 63 61 60 60 60 59 59 60 59 59 58 57 57 57 57 57 56 55
26 28 31 33 35 38 41 43 46 49 51 54 56 59 61 62 63 63 62 62 61 61 62 61 61 60 59 58 58 57 57 56 56 56 55 55 55 54 54 55 55 54 52
Wind_Direction
242 237 234 232 230 229 228 227 226 225 223 223 224 225 226 227 228 230 231 230 230 231 231 234 236 238 240 242 244 245 247 249 251 253 255 257 258 261 262 265 267 268 270
238 233 231 231 229 227 226 225 224 223 222 222 224 223 224 225 225 228 229 229 230 230 230 233 236 238 240 241 243 246 247 250 251 253 255 256 257 260 262 265 266 267 269
236 231 229 228 228 225 225 222 221 221 221 221 221 222 223 223 224 225 225 227 228 231 232 233 236 237 239 241 243 245 247 250 252 253 255 256 258 260 262 264 267 267 268
232 228 225 225 226 223 221 220 220 220 219 219 219 219 221 222 222 224 227 228 229 231 232 234 236 237 239 240 243 247 247 249 251 252 254 256 259 261 261 263 266 267 269
214 215 215 218 219 215 215 218 216 216 216 218 218 217 219 220 221 224 226 227 228 229 231 233 235 237 239 241 244 247 248 249 251 252 254 255 258 262 262 263 265 268 270
173 190 198 199 204 207 210 210 209 213 214 216 217 215 217 219 221 222 225 227 228 230 231 232 235 236 239 241 244 247 250 251 252 253 254 257 261 263 263 263 265 267 270
122 140 163 172 184 189 192 198 204 208 210 213 214 213 214 218 220 221 223 225 227 231 231 232 235 238 241 243 245 248 250 251 253 256 257 259 261 262 263 265 266 267 270
98 115 133 149 162 167 176 187 196 201 207 210 212 211 214 217 220 219 221 225 228 231 234 237 239 242 245 246 249 250 252 253 255 257 259 262 264 263 264 266 267 268 270
100 107 115 126 137 147 165 181 190 197 200 201 203 207 212 214 215 218 221 226 231 235 237 238 240 242 244 246 250 252 253 256 258 258 260 263 264 264 265 266 266 267 269
105 109 107 110 120 131 145 166 186 191 192 194 200 206 210 215 216 221 225 228 234 236 238 239 240 242 245 247 249 251 254 255 257 259 261 263 265 263 263 264 265 266 268
107 109 111 111 118 125 132 145 165 176 183 190 199 205 209 212 217 223 228 232 235 239 239 240 243 244 247 251 252 253 255 256 257 259 261 262 263 264 263 266 267 267 267
109 111 111 111 114 121 125 134 150 158 170 182 190 199 206 216 223 229 233 237 241 243 243 245 246 248 251 252 254 256 257 258 259 261 262 263 264 265 265 266 267 266 264
114 112 113 113 117 123 130 137 146 157 172 187 195 202 210 220 226 231 236 241 244 246 247 249 251 252 254 256 258 259 260 262 262 262 263 265 266 265 265 265 264 263 263
116 116 114 116 119 122 128 137 147 161 170 180 192 205 216 224 228 232 239 244 246 249 252 255 257 258 259 260 261 262 263 263 263 263 263 264 265 264 263 262 261 261 262
113 117 120 118 121 122 123 133 152 167 181 196 212 223 231 238 241 247 250 252 254 256 258 259 260 261 262 262 262 264 264 264 264 263 262 263 263 262 261 259 259 260 260
103 106 109 108 105 103 99 101 155 210 224 232 241 248 252 253 255 258 260 261 261 262 264 264 265 265 266 266 266 266 265 264 264 264 265 264 262 261 260 259 259 260 260
95 96 94 92 79 72 41 350 301 285 279 275 273 271 270 270 269 268 268 268 268 269 270 270 270 269 269 269 268 268 267 266 266 266 265 263 262 260 260 260 260 259 259
79 69 43 21 2 347 330 315 307 299 293 290 286 284 282 281 280 279 278 276 275 275 275 274 273 272 272 271 270 269 268 267 267 266 265 264 262 260 260 260 260 259 259
22 348 333 327 320 316 313 308 303 300 297 295 292 290 288 287 286 285 283 282 281 280 280 279 277 276 275 274 273 272 270 269 269 267 266 264 262 261 260 260 259 259 258
329 325 320 317 312 309 308 306 303 301 299 297 295 293 291 290 289 288 287 286 285 284 283 281 279 278 276 275 273 272 271 270 268 267 265 263 261 260 259 260 259 259 258
318 320 319 318 316 314 312 310 307 305 303 300 298 296 294 292 291 289 288 288 287 286 284 282 281 279 278 276 275 273 272 271 269 268 266 263 261 260 259 259 258 258 257
320 321 321 320 318 316 314 312 310 308 306 304 301 298 296 295 293 292 291 289 288 287 286 284 283 281 279 278 276 275 274 272 270 268 266 264 261 259 258 257 256 256 255
320 321 320 319 317 315 314 313 311 308 306 305 303 301 299 297 295 294 292 291 289 288 286 285 284 282 281 279 278 276 274 271 269 267 265 262 260 258 256 255 253 253 253
318 317 317 317 316 314 313 312 310 309 306 305 304 302 301 300 298 296 294 291 290 289 287 286 284 283 281 279 277 275 272 271 268 266 263 260 258 256 254 254 253 252 251
314 315 315 315 314 313 313 312 311 310 308 306 305 303 302 301 300 298 296 294 291 290 288 287 286 284 282 279 276 274 271 269 267 264 261 259 256 255 253 252 251 251 250
312 313 313 313 313 312 312 312 311 310 308 307 306 304 303 302 301 300 298 295 293 292 290 289 288 285 283 280 276 274 271 268 266 263 260 258 255 253 251 250 249 248 248